This is the latest recevied weather packets stored in our database for station/object W0AKO. If no packets are shown the sender has not sent any weather packets the latest 10 day(s).
| Time | Temp. | Humidity | Pressure | Rain* | Wind** | Luminosity | Snow |
|---|---|---|---|---|---|---|---|
| 1777145950 | 22.78° C | 10% | 1008.3 hPa | 0 mm | - | 346 W/m² | - |
| 1777145647 | 22.78° C | 10% | 1007.9 hPa | 0 mm | - | 381 W/m² | - |
| 1777145342 | 22.78° C | 10% | 1008.2 hPa | 0 mm | - | 421 W/m² | - |
| 1777145037 | 22.22° C | 10% | 1008.5 hPa | 0 mm | - | 331 W/m² | - |
| 1777144731 | 22.22° C | 10% | 1008.5 hPa | 0 mm | - | 410 W/m² | - |
| 1777144425 | 22.22° C | 10% | 1008.8 hPa | 0 mm | - | 214 W/m² | - |
| 1777144123 | 22.22° C | 10% | 1008.6 hPa | 0 mm | - | 182 W/m² | - |
| 1777143818 | 22.22° C | 10% | 1008.6 hPa | 0 mm | - | 180 W/m² | - |
| 1777143516 | 21.67° C | 10% | 1008.8 hPa | 0 mm | - | 228 W/m² | - |
| 1777143210 | 22.22° C | 10% | 1009.1 hPa | 0 mm | - | 270 W/m² | - |
| 1777142907 | 22.22° C | 10% | 1009.2 hPa | 0 mm | - | 366 W/m² | - |
| 1777142603 | 22.22° C | 10% | 1009 hPa | 0 mm | - | 451 W/m² | - |
| 1777142301 | 22.78° C | 10% | 1008.9 hPa | 0 mm | - | 570 W/m² | - |
| 1777142000 | 22.22° C | 10% | 1009.1 hPa | 0 mm | - | 362 W/m² | - |
| 1777141696 | 21.67° C | 10% | 1009.2 hPa | 0 mm | - | 481 W/m² | - |
| 1777141395 | 21.67° C | 10% | 1009.1 hPa | 0 mm | - | 353 W/m² | - |
| 1777141091 | 22.78° C | 10% | 1009.3 hPa | 0 mm | - | 244 W/m² | - |
| 1777140788 | 22.78° C | 10% | 1009.1 hPa | 0 mm | - | 392 W/m² | - |
| 1777140484 | 21.67° C | 10% | 1009.3 hPa | 0 mm | - | 797 W/m² | - |
| 1777140183 | 22.78° C | 10% | 1009 hPa | 0 mm | - | 412 W/m² | - |
| 1777139880 | 21.67° C | 10% | 1009.3 hPa | 0 mm | - | 690 W/m² | - |
| 1777139577 | 21.11° C | 10% | 1009.3 hPa | 0 mm | - | 523 W/m² | - |
| 1777139276 | 21.11° C | 10% | 1009.2 hPa | 0 mm | - | 780 W/m² | - |
| 1777138974 | 20.56° C | 10% | 1009.5 hPa | 0 mm | - | 278 W/m² | - |
| 1777138670 | 20° C | 10% | 1009.4 hPa | 0 mm | - | 203 W/m² | - |
* Rain latest hour (hover to see other rain measurements)
** Current wind speed in m/s (hover to see current wind gust speed)